Capitol Logistics 286


KAFW
Fort Worth Alliance Airport
Fort Worth, Texas, US
KSEA
Seattle-Tacoma International Airport
Seattle, Washington, US

Activity Log

Date Flight Route Aircraft Duration
No Flights Yet

Route Details

Aircraft Information
Primary: Boeing 767-300BDSF
Backup: Not Available
Route Data
Distance: 1428nm
Sched. Duration: 3h 45m
Avg. Duration: 0h 00m (-345m)
Times Flown: 0
Recm'd Route: SWABR5 HUDAD PNH ALS JNC TCH TWF BKE PDT CHINS3
Planned Altitude: 34,000ft
Origin Wx: KAFW 070253Z 00000KT 6SM BR FEW013 OVC049 19/18 A2998 RMK AO2 SLP144 60000 T01940178 53012
Dest. Wx: KSEA 070253Z 00000KT 10SM FEW050 SCT250 13/M01 A2999 RMK AO2 SLP164 T01331006 53006
Notes:

Financial History
Total Freight: 0lbs
Average Load: 0lbs/flt
Fuel Used: 0lbs
Avg. Fuel Used: 0lbs/flt
Fuel Expense: $0
Avg. Fuel Expense: $0
Avg. Fuel Cost: $0/lbs
Total Gross Income: $0
Pilot Pay: $0
Total Expenses: $0
Total Revenue: $0
Average Revenue: $0